Location: Oshawa
(43.9000°N, 78.8670°W)
Time: 19:48:37
(UTC-04:00)

ITAMSAT 1 - Visible Passes

Search period start: 02 September 2015 00:00
Search period end: 12 September 2015 00:00
Orbit: 784 x 798 km, 98.7° (Epoch: 01 September)

Date Brightness Start Highest point End Pass type
(mag) Time Alt. Az. Time Alt. Az. Time Alt. Az.
02 Sep 9.0 03:10:07 10° NE 03:14:39 31° E 03:14:50 31° E visible
02 Sep 8.4 04:49:30 10° N 04:54:13 35° WNW 04:55:34 30° W visible
03 Sep 9.8 02:41:49 10° NE 02:45:03 17° E 02:45:07 17° E visible
03 Sep 7.6 04:19:57 10° N 04:25:05 63° WNW 04:25:51 56° WSW visible
04 Sep 7.7 03:50:39 10° NNE 03:55:50 72° ESE 03:56:09 70° SE visible
04 Sep 9.3 05:31:31 10° NNW 05:34:50 17° WNW 05:36:53 13° W visible
05 Sep 8.7 03:21:38 10° NNE 03:26:26 39° E 03:26:26 39° E visible
05 Sep 8.7 05:01:25 10° N 05:05:51 29° WNW 05:07:10 25° W visible
06 Sep 9.6 02:53:03 10° NE 02:56:44 22° E 02:56:44 22° E visible
06 Sep 7.9 04:31:44 10° N 04:36:46 50° WNW 04:37:28 47° W visible
07 Sep 10.3 02:25:44 10° ENE 02:27:01 11° E 02:27:01 11° E visible
07 Sep 7.5 04:02:21 10° NNE 04:07:35 90° WNW 04:07:44 85° SSW visible
07 Sep 9.5 05:43:48 10° NNW 05:46:25 14° WNW 05:48:29 11° W visible
08 Sep 8.3 03:33:12 10° NNE 03:38:02 49° E 03:38:02 49° E visible
08 Sep 8.9 05:13:23 10° NNW 05:17:29 23° WNW 05:18:46 21° W visible
09 Sep 9.3 03:04:25 10° NE 03:08:20 27° E 03:08:20 27° E visible
09 Sep 8.1 04:43:35 10° N 04:48:26 40° WNW 04:49:04 38° W visible
10 Sep 10.1 02:36:21 10° NE 02:38:37 15° E 02:38:37 15° E visible
10 Sep 7.5 04:14:05 10° N 04:19:17 72° WNW 04:19:21 72° W visible
10 Sep 9.7 05:56:34 10° NW 05:57:59 11° WNW 05:59:07 10° WNW visible
11 Sep 8.0 03:44:51 10° NNE 03:49:38 61° ENE 03:49:38 61° ENE visible
11 Sep 9.1 05:25:27 10° NNW 05:29:05 19° WNW 05:30:22 17° W visible
